Content
SEND FEEDBACK

Daily
Averages
Monthly
Summary
United States of America

DEDEDO, GUAM


Home > North America > United States > Guam
Elevation: 364 feet     Latitude: 13 33N     Longitude: 144 49E

WEATHER
 
SELECT A DAY
Number of Records: 213,081;   Date Range: 1/1/95 - 9/30/14
 
SHARE

PRINT THIS DATA

[ ← Previous Day ]
WEATHER ALMANAC - MARCH 14, 2014
[ Next Day → ]
[ °C ]   °F
Weather ElementAverageHighLow
Temperature82.2 °F87.8 °F (12:45 pm)78.8 °F (2:02 am)
Dewpoint74.3 °F75.2 °F (2:02 am)73.4 °F (9:13 am)
Humidity77.6 %89 % (2:02 am)62 % (12:45 pm)
Barometer29.97 in30.02 in (9:13 am)29.92 in (3:54 am)
Wind Speed14.2 mph21.9 mph (11:43 am)
Wind Gust27.6 mph (12:45 pm)
Weather ElementAverage
Visibility10 mi
Wind DirectionENE (77 °)

Weather ElementTotal
Precipitation0.02 in
Cooling Degree Days18.3 (Base 65)
Growing Degree Days33.3 (Base 50)
Averaged from 40 records on March 14, 2014
WEATHER CONDITIONS BREAKOUT
WIND DIRECTION BREAKOUT
WEATHER BY HOUR - MARCH 14, 2014
[ °C ]   °F
Local TimeTemperatureDewpointHumidityBarometerVisibilityWind DirectionWind SpeedGust SpeedPrecipitationEventsConditions
12:54 AM80.1 °F73.9 °F81 %29.96 in10.0 miENE (70°)11.5 mphOvercast
1:54 AM79.0 °F75.0 °F88 %29.94 in10.0 miEast (80°)12.7 mph0.02 inOvercast
2:02 AM78.8 °F75.2 °F89 %29.96 in10.0 miEast (80°)15.0 mph21.9 mphOvercast
2:09 AM78.8 °F75.2 °F89 %29.96 in10.0 miENE (70°)11.5 mph21.9 mphOvercast
2:16 AM78.8 °F75.2 °F89 %29.95 in10.0 miENE (70°)13.8 mphOvercast
2:41 AM78.8 °F75.2 °F89 %29.95 in10.0 miENE (70°)15.0 mphScattered Clouds
2:54 AM79.0 °F75.0 °F88 %29.93 in10.0 miENE (70°)13.8 mphPartly Cloudy
3:54 AM79.0 °F73.9 °F84 %29.92 in10.0 miEast (90°)13.8 mph21.9 mphMostly Cloudy
4:54 AM79.0 °F73.9 °F84 %29.92 in10.0 miEast (80°)12.7 mphClear
5:54 AM79.0 °F73.9 °F84 %29.94 in10.0 miENE (70°)15.0 mphPartly Cloudy
6:54 AM79.0 °F73.9 °F84 %29.96 in10.0 miEast (80°)15.0 mphPartly Cloudy
7:54 AM81.0 °F75.0 °F82 %29.97 in10.0 miEast (80°)13.8 mphClear
8:54 AM82.0 °F73.9 °F76 %29.99 in10.0 miENE (70°)16.1 mph23.0 mphScattered Clouds
9:13 AM82.4 °F73.4 °F74 %30.02 in10.0 miEast (80°)17.3 mphMostly Cloudy
9:21 AM82.4 °F75.2 °F79 %30.02 in10.0 miENE (70°)15.0 mphScattered Clouds
9:38 AM82.4 °F73.4 °F74 %30.02 in10.0 miENE (70°)18.4 mphMostly Cloudy
9:54 AM84.0 °F75.0 °F74 %30.00 in10.0 miENE (70°)12.7 mph20.7 mphMostly Cloudy
10:54 AM84.0 °F75.0 °F74 %29.99 in10.0 miEast (90°)16.1 mph20.7 mphMostly Cloudy
11:32 AM86.0 °F75.2 °F70 %30.00 in10.0 miEast (90°)18.4 mph24.2 mphMostly Cloudy
11:43 AM84.2 °F73.4 °F70 %30.00 in10.0 miEast (80°)21.9 mph26.5 mphMostly Cloudy
11:52 AM86.0 °F73.4 °F66 %30.00 in10.0 miEast (90°)15.0 mph23.0 mphMostly Cloudy
11:54 AM86.0 °F73.9 °F67 %29.98 in10.0 miEast (80°)16.1 mph23.0 mphMostly Cloudy
12:45 PM87.8 °F73.4 °F62 %29.98 in10.0 miEast (80°)18.4 mph27.6 mphMostly Cloudy
12:54 PM86.0 °F73.9 °F67 %29.96 in10.0 miEast (80°)18.4 mph26.5 mphMostly Cloudy
1:54 PM86.0 °F73.9 °F67 %29.94 in10.0 miENE (70°)20.7 mph27.6 mphMostly Cloudy
2:54 PM86.0 °F73.9 °F67 %29.92 in10.0 miEast (90°)19.6 mph27.6 mphMostly Cloudy
3:27 PM86.0 °F73.4 °F66 %29.94 in10.0 miEast (90°)15.0 mph27.6 mphScattered Clouds
3:54 PM86.0 °F73.9 °F67 %29.92 in10.0 miEast (80°)19.6 mph25.3 mphPartly Cloudy
4:54 PM84.9 °F75.0 °F72 %29.93 in10.0 miEast (80°)13.8 mphScattered Clouds
5:05 PM84.2 °F73.4 °F70 %29.95 in10.0 miENE (60°)16.1 mphMostly Cloudy
5:12 PM84.2 °F73.4 °F70 %29.95 in10.0 miENE (70°)11.5 mph21.9 mphScattered Clouds
5:54 PM82.9 °F73.9 °F74 %29.94 in10.0 miEast (80°)12.7 mph21.9 mphPartly Cloudy
6:54 PM81.0 °F73.9 °F79 %29.96 in10.0 miEast (80°)10.4 mphScattered Clouds
7:54 PM81.0 °F75.0 °F82 %29.97 in10.0 miENE (70°)10.4 mphScattered Clouds
8:12 PM80.6 °F75.2 °F84 %30.00 in10.0 miEast (80°)8.1 mphMostly Cloudy
8:19 PM80.6 °F75.2 °F84 %30.00 in10.0 miENE (70°)8.1 mphPartly Cloudy
8:54 PM80.1 °F75.0 °F85 %29.99 in10.0 miENE (70°)10.4 mphPartly Cloudy
9:54 PM80.1 °F75.0 °F85 %30.00 in10.0 miENE (70°)9.2 mphScattered Clouds
10:54 PM80.1 °F75.0 °F85 %30.01 in10.0 miEast (80°)9.2 mphMostly Cloudy
11:54 PM80.1 °F73.9 °F81 %30.00 in10.0 miEast (80°)5.8 mphPartly Cloudy
Hourly data recorded from PGUM, located miles away from Dededo, Guam







STORIES FROM OUR PARTNERS